Regional Weather Roundup
Issued by NWS Charleston, WV

Home | Current Version | Previous Version | Graphics & Text | Print | Product List | Glossary On
Versions: 1 2 3 4 5 6 7 8 9 10 11 12 13 14 15 16 17 18 19 20 21 22 23 24 25 26 27 28 29 30 31 32 33 34 35 36 37 38 39 40 41 42 43 44 45 46 47 48 49 50
000
ASUS41 KRLX 300110
RWRRLX
West Virginia Regional Weather Roundup
National Weather Service Charleston WV
900 PM EDT WED MAR 29 2017

Note: "fair" indicates few or no clouds below 12,000 feet with no
significant weather and/or obstructions to visibility.

WVZ003-300200-
Northern Panhandle of West Virginia

CITY           SKY/WX    TMP DP  RH WIND       PRES   REMARKS
WHEELING       CLEAR     52  29  41 NE9       30.15F
$$

WVZ009-300200-
Northwest West Virginia

CITY           SKY/WX    TMP DP  RH WIND       PRES   REMARKS
PARKERSBURG    CLEAR     57  35  43 E5        30.14F
$$

WVZ006-300200-
Western West Virginia

CITY           SKY/WX    TMP DP  RH WIND       PRES   REMARKS
HUNTINGTON     CLEAR     53  44  71 NE6       30.09F
$$

WVZ015-300200-
West Central West Virginia

CITY           SKY/WX    TMP DP  RH WIND       PRES   REMARKS
CHARLESTON     CLEAR     55  44  66 NE5       30.10S
$$

WVZ022-031-300200-
North Central West Virginia

CITY           SKY/WX    TMP DP  RH WIND       PRES   REMARKS
CLARKSBURG     CLEAR     54  35  48 E6        30.13F
MORGANTOWN     CLEAR     53  32  44 NE5       30.17R
$$

WVZ025-035-042-045-300200-
Southern West Virginia

CITY           SKY/WX    TMP DP  RH WIND       PRES   REMARKS
BECKLEY        CLEAR     53  44  71 CALM      30.11S
LOGAN            N/A     55  46  71 NE7       30.09R
BLUEFIELD      CLEAR     57  44  62 E6        30.11R
LEWISBURG      CLEAR     55  42  60 CALM      30.11R
$$

WVZ047-300200-
Northern Mountains of West Virginia

CITY           SKY/WX    TMP DP  RH WIND       PRES   REMARKS
ELKINS         CLEAR     44  37  76 CALM      30.16R
$$

WVZ052-300200-
Eastern Panhandle of West Virginia

CITY           SKY/WX    TMP DP  RH WIND       PRES   REMARKS
MARTINSBURG    CLEAR     53  35  50 CALM      30.15R
PETERSBURG     CLEAR     52  43  71 W6        30.16R
$$



USA.gov is the U.S. government's official web portal to all federal, state and local government web resources and services.